Weather History for KLKU - April, 2013

Change the Weather History Date:

Tuesday, April 30, 2013

  Actual Average (KCHO) Record (KCHO)
Temperature  
Mean Temperature 58 °F 59 °F  
Max Temperature 62 °F 71 °F 93 °F (1910)
Min Temperature 55 °F 47 °F 34 °F (2008)
Degree Days  
Heating Degree Days 6 7  
Month to date heating degree days 308  
Since 1 July heating degree days 4312  
Cooling Degree Days 0 1  
Month to date cooling degree days 19  
Year to date cooling degree days 21  
Growing Degree Days 8 (Base 50)    
Moisture  
Dew Point 54 °F    
Average Humidity 89    
Maximum Humidity 94    
Minimum Humidity 77    
Precipitation  
Precipitation 0.03 in 0.10 in 2.01 in (2014)
Month to date precipitation 3.36  
Year to date precipitation 12.49  
Sea Level Pressure  
Sea Level Pressure 30.15 in    
Wind  
Wind Speed 5 mph (NNE)    
Max Wind Speed 13 mph    
Max Gust Speed 18 mph    
Visibility 8 miles    
Events Rain    
T = Trace of Precipitation, MM = Missing Value Source: NWS Daily Summary

Daily Weather History Graph

Daily Weather History Graph

Search for Another Location

Airport or City:

Trip Planner

Search our weather history database for the weather conditions in past years. The results will help you decide how hot, cold, wet, or windy it might be!

Date:

Astronomy

Apr. 30, 2013 Rise Set
Actual Time 6:16 AM EDT 8:02 PM EDT
Civil Twilight 5:48 AM EDT 8:30 PM EDT
Nautical Twilight 5:14 AM EDT 9:04 PM EDT
Astronomical Twilight 4:37 AM EDT 9:41 PM EDT
Moon 12:22 AM EDT (4/30) 10:44 AM EDT (4/30)
Length of Visible Light 14h 42m
Length of Day
13h 45m
Waning Gibbous, 70% of the Moon is Illuminated
Apr 30
Waning Gibbous
May 2
Last Quarter
May 9
New
May 18
First Quarter
May 25
Full

Hourly Weather History & Observations

Time (EDT) Temp. Dew Point Humidity Pressure Visibility Wind Dir Wind Speed Gust Speed Precip Events Conditions
12:15 AM 55.4 °F 53.6 °F 94% 30.07 in 3.0 mi NNE 4.6 mph - N/A   Overcast
12:35 AM 55.4 °F 53.6 °F 94% 30.07 in 3.0 mi North 3.5 mph - N/A   Overcast
12:55 AM 55.4 °F 53.6 °F 94% 30.07 in 4.0 mi NNE 6.9 mph - N/A   Overcast
1:15 AM 55.4 °F 53.6 °F 94% 30.07 in 7.0 mi NE 4.6 mph - N/A   Overcast
1:35 AM 55.4 °F 53.6 °F 94% 30.07 in 7.0 mi NE 4.6 mph - N/A   Overcast
1:55 AM 55.4 °F 53.6 °F 94% 30.07 in 10.0 mi NNE 6.9 mph - N/A   Overcast
2:15 AM 55.4 °F 53.6 °F 94% 30.07 in 10.0 mi NNE 4.6 mph - N/A   Overcast
2:35 AM 55.4 °F 53.6 °F 94% 30.06 in 3.0 mi NNE 5.8 mph - N/A   Overcast
2:55 AM 55.4 °F 53.6 °F 94% 30.06 in 4.0 mi NNE 4.6 mph - N/A   Overcast
3:15 AM 55.4 °F 53.6 °F 94% 30.06 in 10.0 mi NNE 4.6 mph - N/A   Overcast
3:35 AM 55.4 °F 53.6 °F 94% 30.06 in 10.0 mi North 3.5 mph - N/A   Overcast
3:55 AM 55.4 °F 53.6 °F 94% 30.07 in 10.0 mi North 3.5 mph - N/A   Overcast
4:15 AM 55.4 °F 53.6 °F 94% 30.07 in 10.0 mi Calm Calm - N/A   Overcast
4:35 AM 55.4 °F 53.6 °F 94% 30.08 in 10.0 mi Calm Calm - N/A   Overcast
4:55 AM 55.4 °F 53.6 °F 94% 30.08 in 10.0 mi North 3.5 mph - N/A   Overcast
5:15 AM 55.4 °F 53.6 °F 94% 30.08 in 10.0 mi North 3.5 mph - N/A   Overcast
5:35 AM 55.4 °F 51.8 °F 88% 30.09 in 10.0 mi North 3.5 mph - N/A   Overcast
5:55 AM 55.4 °F 53.6 °F 94% 30.10 in 10.0 mi Calm Calm - N/A   Overcast
6:15 AM 55.4 °F 51.8 °F 88% 30.11 in 10.0 mi Calm Calm - N/A   Overcast
6:35 AM 55.4 °F 53.6 °F 94% 30.12 in 10.0 mi Calm Calm - N/A   Overcast
6:55 AM 55.4 °F 53.6 °F 94% 30.13 in 10.0 mi North 3.5 mph - N/A   Overcast
7:15 AM 55.4 °F 53.6 °F 94% 30.13 in 7.0 mi North 4.6 mph - N/A   Overcast
7:35 AM 55.4 °F 53.6 °F 94% 30.14 in 3.0 mi North 3.5 mph - N/A   Overcast
7:55 AM 55.4 °F 53.6 °F 94% 30.14 in 4.0 mi North 4.6 mph - N/A   Overcast
8:15 AM 55.4 °F 53.6 °F 94% 30.15 in 4.0 mi North 4.6 mph - N/A   Overcast
8:35 AM 55.4 °F 53.6 °F 94% 30.15 in 5.0 mi North 5.8 mph - N/A   Overcast
8:55 AM 55.4 °F 53.6 °F 94% 30.16 in 7.0 mi North 5.8 mph - N/A   Overcast
9:15 AM 57.2 °F 53.6 °F 88% 30.16 in 10.0 mi NNE 5.8 mph - N/A   Overcast
9:35 AM 57.2 °F 53.6 °F 88% 30.16 in 7.0 mi North 4.6 mph - N/A   Overcast
9:55 AM 57.2 °F 53.6 °F 88% 30.16 in 10.0 mi NNE 3.5 mph - N/A   Overcast
10:15 AM 57.2 °F 53.6 °F 88% 30.16 in 10.0 mi NNE 5.8 mph - N/A   Overcast
10:35 AM 57.2 °F 53.6 °F 88% 30.16 in 10.0 mi North 5.8 mph - N/A   Overcast
10:55 AM 59.0 °F 55.4 °F 88% 30.16 in 10.0 mi NNE 5.8 mph - N/A   Overcast
11:15 AM 60.8 °F 53.6 °F 77% 30.16 in 10.0 mi NE 6.9 mph - N/A   Overcast
11:35 AM 60.8 °F 55.4 °F 82% 30.16 in 10.0 mi North 4.6 mph - N/A   Overcast
11:55 AM 60.8 °F 55.4 °F 82% 30.16 in 10.0 mi North 4.6 mph - N/A   Overcast
12:15 PM 60.8 °F 55.4 °F 82% 30.16 in 10.0 mi North 4.6 mph - N/A   Overcast
12:35 PM 62.6 °F 55.4 °F 77% 30.16 in 10.0 mi NNE 5.8 mph - N/A   Overcast
12:55 PM 60.8 °F 55.4 °F 82% 30.16 in 10.0 mi North 5.8 mph - N/A   Overcast
1:15 PM 60.8 °F 55.4 °F 82% 30.16 in 10.0 mi North 4.6 mph - N/A   Overcast
1:35 PM 62.6 °F 55.4 °F 77% 30.15 in 10.0 mi NE 8.1 mph - N/A   Overcast
1:55 PM 62.6 °F 55.4 °F 77% 30.15 in 10.0 mi NE 6.9 mph - N/A   Overcast
2:15 PM 62.6 °F 55.4 °F 77% 30.16 in 10.0 mi NE 11.5 mph - N/A   Overcast
2:35 PM 60.8 °F 55.4 °F 82% 30.16 in 10.0 mi ENE 6.9 mph - N/A   Overcast
2:55 PM 62.6 °F 57.2 °F 82% 30.16 in 10.0 mi NE 6.9 mph - N/A   Overcast
3:15 PM 62.6 °F 57.2 °F 82% 30.16 in 10.0 mi North 8.1 mph - N/A   Overcast
3:35 PM 62.6 °F 57.2 °F 82% 30.16 in 10.0 mi NNE 6.9 mph - N/A   Overcast
4:15 PM 62.6 °F 57.2 °F 82% 30.17 in 7.0 mi ENE 6.9 mph - N/A   Overcast
4:35 PM 60.8 °F 55.4 °F 82% 30.17 in 10.0 mi NNE 10.4 mph 16.1 mph N/A   Overcast
4:55 PM 59.0 °F 55.4 °F 88% 30.18 in 10.0 mi NE 9.2 mph - N/A   Overcast
5:15 PM 60.8 °F 55.4 °F 82% 30.18 in 10.0 mi NE 9.2 mph - N/A   Overcast
5:35 PM 60.8 °F 55.4 °F 82% 30.18 in 10.0 mi NE 6.9 mph - N/A   Overcast
5:55 PM 60.8 °F 55.4 °F 82% 30.18 in 10.0 mi NE 8.1 mph - N/A   Overcast
6:15 PM 59.0 °F 55.4 °F 88% 30.19 in 10.0 mi NE 11.5 mph 18.4 mph N/A   Overcast
6:35 PM 59.0 °F 55.4 °F 88% 30.20 in 7.0 mi NE 12.7 mph 16.1 mph N/A   Overcast
6:55 PM 57.2 °F 55.4 °F 94% 30.20 in 5.0 mi NE 8.1 mph - N/A   Overcast
7:15 PM 57.2 °F 55.4 °F 94% 30.21 in 4.0 mi ENE 9.2 mph - N/A   Overcast
7:35 PM 57.2 °F 53.6 °F 88% 30.21 in 1.8 mi NE 6.9 mph - N/A Rain Light Rain
7:55 PM 57.2 °F 53.6 °F 88% 30.22 in 3.0 mi NE 6.9 mph - N/A   Overcast
8:15 PM 57.2 °F 55.4 °F 94% 30.22 in 5.0 mi NE 8.1 mph - N/A   Overcast
8:35 PM 57.2 °F 53.6 °F 88% 30.23 in 10.0 mi NE 4.6 mph - N/A   Overcast
8:55 PM 57.2 °F 53.6 °F 88% 30.23 in 7.0 mi NE 6.9 mph - N/A   Overcast
9:15 PM 57.2 °F 53.6 °F 88% 30.24 in 5.0 mi NE 8.1 mph - 0.01 in Rain Light Rain
9:35 PM 57.2 °F 53.6 °F 88% 30.25 in 5.0 mi NE 6.9 mph - 0.01 in   Overcast
9:55 PM 57.2 °F 53.6 °F 88% 30.26 in 4.0 mi NE 4.6 mph - 0.01 in   Overcast
10:15 PM 57.2 °F 53.6 °F 88% 30.26 in 4.0 mi ENE 6.9 mph - 0.01 in Rain Light Rain
10:35 PM 55.4 °F 53.6 °F 94% 30.26 in 4.0 mi ENE 5.8 mph - 0.02 in   Drizzle
10:55 PM 55.4 °F 53.6 °F 94% 30.25 in 7.0 mi NE 4.6 mph - 0.02 in   Light Drizzle
11:15 PM 55.4 °F 53.6 °F 94% 30.26 in 10.0 mi North 3.5 mph - N/A   Overcast
11:35 PM 55.4 °F 53.6 °F 94% 30.26 in 10.0 mi NNE 6.9 mph - N/A   Overcast
11:55 PM 55.4 °F 51.8 °F 88% 30.26 in 10.0 mi NNE 6.9 mph - N/A   Overcast